Flag for Germany Weather past 2 weeks in Burgdorf, Lower Saxony, Germany

Now
61 °F

Broken clouds.


Feels Like: 61 °F
Forecast: 47 / 58 °F
Wind: 6 mph from Southwest

Location: Celle Airport

Current Time: May 29, 2015 at 9:41:18 PM

Latest Report: May 29, 2015 at 8:20 PM


Visibility: N/A

Pressure: 29.68 "Hg

Humidity: 48%

Dew point: 41 °F

Location of BurgdorfLocation

Historic Weather in Burgdorf — Graph

°F

Burgdorf temperature yesterday

Maximum temperature yesterday: 66 °F (at 1:20 PM)
Minimum temperature yesterday: 50 °F (at 1:20 AM)
Average temperature yesterday: 55 °F

Past Weeks' High & Low Weather Summary

 TemperatureHumidityPressure
High68 °F (May 18, 5:00 PM)100% (May 24, 5:20 AM)30.33 "Hg (May 24, 5:20 AM)
Low36 °F (May 15, 5:20 AM)32% (May 20, 4:20 PM)29.59 "Hg (May 18, 9:20 PM)
Average53 °F68%30.03 "Hg
* Reported May 14 8:20 PM — May 29 8:20 PM, Burgdorf, Weather by CustomWeather, © 2015

Note: Actual official high and low records may vary slightly from our data, if they occured in-between our weather recording intervals... More about our weather records

Advertising

Burgdorf weather history for previous 24 hours

 ConditionsComfort  
Time TempWeatherWind HumidityBarometerVisibility
8:20 PM
Fri, May 29
61 °FBroken clouds.6 mph48%29.68 "HgN/A
7:20 PM63 °FBroken clouds.17 mph42%29.71 "HgN/A
6:20 PM64 °FBroken clouds.20 mph43%29.71 "HgN/A
5:20 PM64 °FBroken clouds.17 mph43%29.71 "HgN/A
4:20 PM63 °FPartly sunny.9 mph56%29.74 "HgN/A
3:20 PM63 °FBroken clouds.10 mph52%29.77 "HgN/A
2:20 PM61 °FMostly cloudy.10 mph55%29.80 "HgN/A
1:20 PM61 °FMore clouds than sun.8 mph48%29.83 "HgN/A
12:20 PM61 °FOvercast.9 mph48%29.83 "HgN/A
11:20 AM59 °FBroken clouds.9 mph48%29.86 "HgN/A
10:20 AM57 °FPartly sunny.8 mph51%29.89 "HgN/A
9:20 AM55 °FPartly sunny.7 mph63%29.89 "HgN/A
8:20 AM52 °FPartly sunny.6 mph77%29.92 "HgN/A
7:20 AM48 °FPartly sunny.2 mph82%29.92 "HgN/A
6:20 AM43 °FFog.1 mph93%29.92 "HgN/A
5:20 AM41 °FFog.1 mph100%29.92 "HgN/A
4:20 AM41 °FFog.1 mph100%29.92 "HgN/A
3:20 AM43 °FFog.1 mph93%29.95 "HgN/A
2:20 AM45 °FFog.3 mph100%29.95 "HgN/A
1:20 AM46 °FFog.2 mph93%29.92 "HgN/A
12:20 AM48 °FFog.2 mph100%29.92 "HgN/A
11:20 PM
Thu, May 28
50 °FPartly cloudy.2 mph94%29.92 "HgN/A
10:20 PM52 °FFog.1 mph94%29.92 "HgN/A
9:20 PM54 °FPartly sunny.3 mph88%29.89 "HgN/A
Weather by CustomWeather, © 2015

See weather overviewHow to use our weather pages